Weather in Plesy

Belarus     52°27′15″N   31°03′52″E
temp.,
°C
wind,
m/s
gust,
m/s
humid.,
%
clouds,
%
prec.,
mm/h
press.,
hPa
HPBL,
m
19 may, wed
wed1900:00+13ese239599 0.1 100051
03:00+13sse3495100 0.1 100093
06:00+13se2496100 0.8 1000143
09:00+15sse4586100 1.7 1001583
12:00+17sse458035 0.9 1002807
15:00+18sse567153 2.7 10021233
18:00+17sw457849 1.6 1002763
21:00+12wnw5896100 2.5 1004319
20 may, thu
thu2000:00+11wnw4794100 0.0 1004417
03:00+11wnw4896100 0.0 1003351
06:00+10wnw5996100 0.0 1003511
09:00+10wnw61195100 0.1 1004609
12:00+10wnw61191100 0.1 1006670
15:00+12nw5117878 0.1 1007949
18:00+16nw510650 0.0 10081505
21:00+11w49805 0.1 1010184
21 may, fri
fri2100:00+10w3790100 0.0 1012135
03:00+9wnw3691100 0.0 1013124
06:00+9wnw2592100 0.0 1015145
09:00+12nw347497 0.0 1016486
12:00+16nw345710 0.0 10161311
15:00+17nw4450100 0.0 10161437
18:00+17nnw235473 0.0 10171452
21:00+12ese11690 0.0 101811
22 may, sat
sat2200:00+10sse22735 0.0 101813
03:00+9e11770 0.0 101811
06:00+9se237826 0.0 101854
09:00+15se23623 0.0 1019455
12:00+18se334748 0.0 10181388
15:00+20se4546100 0.0 10161696
18:00+20se455936 0.0 10151061
21:00+15se47829 0.1 1014118
23 may, sun
sun2300:00+13se379098 0.0 1014128
03:00+12sse3794100 0.0 1012139
06:00+12sse3995100 0.0 1012226
09:00+16s4679100 0.0 1010417
12:00+18ssw5771100 0.2 1009751
15:00+19wsw6866100 0.6 10091197
18:00+16wnw5874100 0.1 1010875
21:00+13wnw3784100 0.1 1011250